Regional Weather Roundup
Issued by NWS

Home | Current Version | Previous Version | Text Only | Print | Product List | Glossary On
Versions: 1 2 3 4 5 6 7 8 9 10 11 12 13 14 15 16 17 18 19 20 21 22 23 24 25 26 27 28 29 30 31 32 33 34 35 36 37 38 39 40 41 42 43 44 45 46 47 48 49 50
000
ASUS43 KMPX 230110
RWRMN
WEATHER ROUNDUP FOR MINNESOTA
NATIONAL WEATHER SERVICE TWIN CITIES/CHANHASSEN MN
800 PM CDT TUE MAY 22 2018


NOTE: "FAIR" INDICATES FEW OR NO CLOUDS BELOW 12,000 FEET WITH NO
SIGNIFICANT WEATHER AND/OR OBSTRUCTIONS TO VISIBILITY. N/A MEANS
CURRENT SKY AND/OR WEATHER CONDITIONS ARE NOT AVAILABLE.

MNZ060>063-068>070-230200-
   Twin Cities Metro

CITY           SKY/WX    TMP DP  RH WIND       PRES   REMARKS
TWIN CITIES    FAIR      73  58  59 SE12      30.02S
ST PAUL        FAIR      71  57  61 SE8       30.02S
CRYSTAL        FAIR      72  56  57 SE5       30.00S
BLAINE         CLEAR     73  57  56 E5        30.02S
LAKEVILLE      FAIR      72  57  60 SE6       30.02S
EDEN PRAIRIE   FAIR      74  57  55 E9        30.00S
SOUTH ST PAUL  FAIR      72  55  55 SE3       30.02S
LAKE ELMO      FAIR      72  57  60 SE3       30.04S
$$
MNZ001>005-007-008-013>017-022>024-027-028-230200-
   Northwest Minnesota

CITY           SKY/WX    TMP DP  RH WIND       PRES   REMARKS
BEMIDJI        MOCLDY    71  55  56 SE6       30.01R
HALLOCK        FAIR      79  54  41 SE12      29.94R
ROSEAU         FAIR      77  57  50 CALM      29.98R
WARROAD        FAIR      70  55  60 E5        29.99R
THIEF RVR FALL FAIR      75  54  47 S7        29.99R
CROOKSTON      FAIR      77  55  47 SE9       29.96R
FOSSTON        FAIR      77  50  38 S6        29.99S
DETROIT LAKES  FAIR      73  54  49 SE7       30.00S
MOORHEAD       FAIR      79  55  44 E10       29.94S
PARK RAPIDS    FAIR      73  55  53 S6        30.01R
MAHNOMEN       FAIR      74  55  49 SE8       29.98S
$$
MNZ006-009>011-018-025>026-230200-
   North Central Minnesota

CITY           SKY/WX    TMP DP  RH WIND       PRES   REMARKS
BAUDETTE       FAIR      75  51  43 CALM      29.99R
FLAG ISLAND    FAIR      70  48  46 SE3       29.97S
INTL FALLS     FAIR      74  46  36 E5        29.99R
WASKISH          N/A     72  55  56 CALM      30.00S
BIG FORK       FAIR      72  54  53 SW6       30.01S
LONGVILLE      FAIR      73  55  53 S5        30.02S
GRAND RAPIDS   FAIR      68  55  63 CALM      30.03S
CRANE LAKE     FAIR      73  43  33 CALM      30.01R
ORR            FAIR      70  45  40 CALM      29.98R
COOK           FAIR      75  52  43 SW3       30.01R
WALKER         FAIR      70  54  56 E3        30.02R
$$
MNZ012-019>021-037-230200-
   Northeast Minnesota

CITY           SKY/WX    TMP DP  RH WIND       PRES   REMARKS
DULUTH         FAIR      74  53  48 SW8       30.02R
ELY            FAIR      75  39  27 W6        30.00S
HIBBING        FAIR      71  52  50 W3        30.01R
EVELETH        FAIR      72  52  49 SW5       30.02S
DULUTH HARBOR  FAIR      73  57  56 SW7       30.01R
TWO HARBORS    FAIR      75  57  53 S5        29.99R
SILVER BAY     FAIR      72  54  53 SW5       29.99R
GRAND MARAIS     N/A     44  38  79 W3        30.00R
G MARAIS ARPRT FAIR      66  34  30 SW5       30.04R
$$
MNZ029>031-032-039>041-046>048-054>057-064-230200-
   West Central Minnesota

CITY           SKY/WX    TMP DP  RH WIND       PRES   REMARKS
FERGUS FALLS   FAIR      75  55  50 SE9       29.92S
WHEATON        CLOUDY    81  46  30 SE5       29.96R
MORRIS         CLOUDY    79  55  44 E17       29.96R
ALEXANDRIA     FAIR      75  56  51 E10       30.01S
ELBOW LAKE     FAIR      74  55  50 SE12      29.98S
WADENA         FAIR      72  55  56 SE7       30.01R
GLENWOOD       FAIR      72  57  60 E7        30.01S
APPLETON       CLEAR     79  54  41 E8        29.95S
BENSON         CLEAR     75  57  53 SE7       29.98S
ORTONVILLE     CLOUDY    77  55  47 E10       29.94S
MADISON        CLEAR     81  57  44 E15       29.95R
WILLMAR        FAIR      73  57  56 SE7       30.01S
$$
MNZ033>034-036-042>043-049>051-058-059-230200-
   Central Minnesota

CITY           SKY/WX    TMP DP  RH WIND       PRES   REMARKS
ST CLOUD       FAIR      73  56  54 CALM      30.01S
SAUK CENTRE    FAIR      71  56  60 E5        30.02R
PAYNESVILLE    FAIR      73  59  59 E5        30.01S
PINE RIVER     FAIR      70  54  56 S5        30.06R
BRAINERD       MOCLDY    72  54  53 S5        30.03R
STAPLES        FAIR      72  54  53 CALM      30.02S
LONG PRAIRIE   FAIR      70  54  56 E7        30.03R
LITTLE FALLS   FAIR      68  55  64 CALM      30.03S
LITCHFIELD     FAIR      73  61  64 E9          N/A
BUFFALO        FAIR      73  55  53 E5        30.02S
MAPLE LAKE     FAIR      73  59  60 CALM      30.02S
HUTCHINSON     FAIR      75  59  57 E6        30.01R
$$
MNZ037-044-045-052-053-230200-
   East Central Minnesota

CITY           SKY/WX    TMP DP  RH WIND       PRES   REMARKS
PRINCETON      FAIR      73  57  56 SE5       30.03R
MORA           MOCLDY    68  55  64 E3        30.05R
CAMBRIDGE      FAIR      73  57  56 SE3       30.03S
RUSH CITY      FAIR      69  56  65 CALM      30.03S
MOOSE LAKE     FAIR      70  54  56 SW6       30.02R
HINCKLEY       CLOUDY    72  55  56 CALM      30.04R
CLOQUET        FAIR      72  50  46 SW7       30.03R
MCGREGOR       FAIR      70  54  56 SW5       30.04R
$$
MNZ071>073-080-081-089-090-097-098-230200-
   Southwest Minnesota

CITY           SKY/WX    TMP DP  RH WIND       PRES   REMARKS
MONTEVIDEO     CLEAR     77  57  50 SE10      29.97R
GRANITE FALLS  CLEAR     79  60  51 E8        29.98S
CANBY          PTCLDY    79  56  45 SE10      29.95S
MARSHALL       MOCLDY    78  60  53 SE14      29.96R
REDWOOD FALLS  CLEAR     76  59  55 E6        29.97S
OLIVIA         CLEAR     73  55  53 E3        29.98S
PIPESTONE      CLOUDY    75  63  64 S10       29.97R
WINDOM         CLEAR     77  54  44 SE6       29.98S
WORTHINGTON      N/A     74  63  68 SE8       29.99R
JACKSON        PTCLDY    75  61  60 SE7       30.00R
TRACY          CLEAR     78  63  60 SE9G16    29.97S
SLAYTON        PTCLDY    77  61  57 SE14      29.98S
$$
MNZ065>067-074>077-082>085-091>093-230200-
   South Central Minnesota

CITY           SKY/WX    TMP DP  RH WIND       PRES   REMARKS
NEW ULM        CLEAR     79  54  41 CALM      29.98S
ST JAMES       PTCLDY    79  57  47 SE7       29.99S
FAIRMONT       PTCLDY    76  60  57 SE7       29.99S
GLENCOE        FAIR      76  57  51 E8        29.99S
FARIBAULT      FAIR      73  59  60 CALM      30.02S
OWATONNA       FAIR      73  59  60 E7        30.02S
WASECA         FAIR      72  55  56 E7        30.02S
ALBERT LEA     FAIR      73  55  53 E6        30.02R
$$
MNZ078>079-086>088-094>096-230200-
   Southeast Minnesota

CITY           SKY/WX    TMP DP  RH WIND       PRES   REMARKS
ROCHESTER      FAIR      66  60  81 E7        30.05R
RED WING       FAIR      70  54  56 SE5       30.03S
STANTON        FAIR      73  57  59 E6        30.01S
DODGE CENTER   FAIR      70  57  64 E10       30.04S
WINONA         FAIR      64  59  82 CALM      30.04R
AUSTIN         FAIR      73  57  56 E7        30.02S
PRESTON        FAIR      67  58  73 E7        30.06S
$$
ABBREVIATIONS USED IN REMARKS
   TC - TEMPERATURES IN CELSIUS
  WCI - WIND CHILL INDEX
   HX - HEAT INDEX
  VSB - VISIBILITY
$$




USA.gov is the U.S. government's official web portal to all federal, state and local government web resources and services.